Theta_e
301 305 305 303 300 301 303 304 303 303 297 298 302 302 303 302 299 300 301 300 299 297 295 292 291 290 290 289 289 289 289 289 289 289 289 290 290 290 290 290 290 290 290 290
302 303 296 296 298 301 302 302 303 301 297 297 300 300 301 302 301 300 300 301 299 298 296 292 291 290 289 289 289 289 289 289 289 289 290 290 290 289 289 289 289 289 289 289
302 296 293 296 298 299 299 300 300 299 298 298 298 303 304 301 300 301 300 300 300 298 296 293 291 290 289 289 289 288 289 289 289 289 289 289 290 289 288 289 289 289 289 288
296 292 294 296 296 296 299 295 296 297 299 302 298 301 304 305 301 299 299 299 299 298 297 294 292 291 290 289 289 289 289 289 289 290 290 289 288 288 288 288 288 288 288 288
294 294 294 296 294 294 296 294 296 297 299 298 300 300 304 302 303 303 301 299 299 299 297 295 293 291 290 289 289 289 289 289 289 289 289 289 289 289 288 288 288 288 288 287
292 290 292 293 292 293 294 296 297 297 299 304 299 299 303 304 302 302 301 299 298 298 297 296 294 292 291 290 289 289 289 289 289 289 289 289 288 288 288 287 287 287 287 287
293 292 291 291 294 294 295 298 305 306 307 307 297 297 303 303 301 299 299 298 297 297 297 296 294 292 291 290 289 289 289 289 289 289 289 289 289 288 288 287 287 287 286 286
300 299 292 290 293 297 296 299 306 305 303 302 296 299 305 300 298 297 296 296 295 296 296 296 295 293 291 290 289 289 289 289 289 289 289 289 288 288 288 288 287 287 287 287
301 295 290 289 290 293 296 297 296 301 293 298 301 302 303 299 300 299 297 296 296 295 295 295 294 293 292 290 290 290 289 289 289 289 289 289 288 288 288 288 288 287 287 287
297 297 290 289 290 291 293 294 297 299 303 303 302 302 302 302 300 300 298 298 296 295 294 295 294 293 292 291 290 290 289 289 289 289 289 289 288 288 288 288 287 287 287 287
297 301 291 289 291 295 291 295 294 297 299 302 301 303 307 301 299 299 297 297 296 295 294 294 294 294 292 291 290 290 289 289 289 289 289 289 288 288 287 287 287 287 287 287
295 303 296 296 289 289 290 296 297 300 300 296 297 300 299 299 298 297 296 295 295 294 294 294 294 293 292 291 290 290 290 289 289 289 289 289 288 288 287 287 287 287 287 286
294 301 300 297 292 289 290 292 294 294 295 299 300 300 296 296 296 296 295 294 294 293 293 293 293 293 292 291 290 290 290 290 289 289 289 289 288 288 287 287 287 287 287 286
292 297 302 306 302 296 292 292 292 296 298 297 298 299 299 299 299 298 296 295 294 293 293 292 292 292 292 291 290 290 290 290 290 290 289 289 288 288 287 287 286 286 286 286
292 296 289 292 292 292 294 291 291 293 296 299 299 299 300 300 297 295 294 293 292 292 292 292 291 291 291 290 289 290 290 290 290 290 289 289 288 287 287 286 286 286 286 285
285 295 286 291 290 290 290 291 290 292 293 294 296 296 297 296 295 294 293 292 292 291 291 290 291 291 290 289 290 290 290 290 290 290 289 289 288 287 287 286 286 286 285 285
288 289 292 297 289 290 293 289 290 291 293 294 295 297 297 296 293 292 291 291 291 290 290 290 290 291 290 289 290 290 290 290 290 290 289 288 287 287 286 286 286 285 286 285
289 291 293 297 290 296 296 290 291 292 294 293 294 295 293 292 291 290 288 288 289 289 289 289 290 290 290 289 290 290 289 290 289 288 287 287 286 286 286 286 285 285 285 285
286 292 293 296 296 297 295 289 290 290 296 293 293 293 292 291 289 289 288 288 288 288 289 288 289 289 289 288 289 288 288 287 287 287 286 286 286 286 285 285 285 285 285 286
284 285 293 288 295 298 295 289 288 289 293 292 293 293 292 289 294 293 287 288 288 288 288 287 287 287 287 287 286 286 286 286 286 286 285 285 285 285 285 285 285 285 286 286
287 288 290 293 293 296 293 287 287 295 297 288 290 290 290 292 289 287 286 287 287 287 287 286 286 286 286 285 285 285 285 285 285 285 285 285 285 285 285 285 285 285 286 286
289 291 290 292 292 293 288 286 291 291 287 287 287 287 287 286 285 285 284 285 285 285 285 284 284 284 284 284 284 284 284 284 284 284 284 284 284 283 283 284 284 285 285 285
292 294 292 293 293 289 287 289 287 287 287 286 286 285 285 285 284 283 283 284 283 283 283 283 283 283 282 282 282 282 282 282 282 282 282 282 282 282 282 282 283 283 282 281
287 286 291 289 291 288 286 286 285 285 285 284 284 283 283 283 281 280 280 280 280 281 281 281 281 281 280 280 280 280 280 281 281 281 281 281 281 281 280 279 279 278 278 279
289 286 289 289 288 286 285 286 285 283 283 282 282 281 280 280 279 278 278 278 278 278 279 279 279 279 279 279 278 279 279 279 279 279 278 278 277 276 276 276 275 275 276 276
286 290 290 292 290 289 284 283 282 280 280 279 279 279 278 278 278 277 277 277 277 277 277 277 277 277 277 276 276 275 274 274 274 274 274 273 273 273 273 274 274 274 274 273
Wind_Speed
2 5 2 6 3 3 3 3 5 1 4 5 9 15 15 13 19 21 22 22 21 19 15 15 15 16 15 13 11 9 8 7 6 4 3 4 5 6 7 9 10 11 12 13
4 3 3 1 0 1 1 2 4 2 1 3 10 19 22 19 24 23 24 23 21 19 18 17 17 17 16 14 13 11 9 7 6 5 4 4 5 6 8 9 10 11 12 14
1 6 3 1 3 3 1 3 2 4 7 5 11 9 2 1 11 19 18 20 20 22 22 20 20 20 18 16 15 12 10 8 7 6 5 5 5 8 8 8 9 11 13 14
7 3 2 4 3 2 2 2 1 3 5 4 4 7 11 3 4 7 14 17 21 22 23 22 22 21 20 18 17 15 12 10 8 6 4 6 4 3 5 7 9 11 12 13
3 3 3 3 3 4 4 1 1 2 4 4 6 4 4 3 4 9 3 9 15 21 23 24 23 22 20 20 19 17 15 12 10 7 6 5 4 4 5 7 8 10 11 13
5 2 3 3 3 2 6 2 2 2 3 3 3 3 2 2 4 6 5 5 8 15 21 23 22 21 20 20 20 19 17 14 12 9 6 4 3 4 5 7 8 9 10 12
4 3 3 1 4 3 3 4 2 2 2 3 3 4 7 10 6 5 10 8 5 9 18 22 24 23 22 23 22 21 19 16 14 11 8 5 2 2 3 5 6 7 9 11
7 3 4 1 3 2 5 2 3 4 3 3 2 6 2 3 4 7 7 5 5 5 14 21 24 24 23 24 24 23 21 19 17 14 11 7 4 0 2 5 6 8 10 11
4 3 3 3 1 2 4 4 3 2 2 2 6 5 4 6 4 4 6 3 3 3 10 18 22 24 23 25 26 24 23 21 19 16 13 10 6 3 3 5 8 10 11 12
4 4 1 2 1 2 3 1 3 2 2 5 5 5 8 6 3 5 9 9 6 2 6 14 21 23 22 23 24 24 23 22 20 19 16 13 10 6 5 6 8 11 12 13
1 1 3 1 7 7 4 4 3 1 2 3 5 4 2 5 2 3 5 6 6 4 3 9 18 22 24 23 24 24 24 23 22 20 18 16 13 10 8 8 10 13 14 15
4 2 4 3 2 3 2 4 7 4 6 2 3 8 5 4 2 4 2 5 4 8 11 8 14 23 24 25 26 26 25 24 22 20 20 19 16 14 11 10 12 14 16 16
6 4 3 2 2 0 5 8 6 1 1 7 5 6 2 4 4 4 5 6 6 12 9 10 13 22 28 28 30 29 27 25 23 22 21 20 19 17 14 13 14 16 17 16
4 2 3 3 4 5 5 8 15 7 4 7 14 22 8 9 8 8 4 8 16 9 10 10 11 16 24 26 30 30 28 26 23 22 20 20 21 20 17 15 16 17 18 16
3 4 0 3 3 3 2 5 13 14 16 10 18 20 11 6 2 9 15 12 14 12 9 10 11 12 18 23 26 28 26 25 23 21 21 22 22 21 19 18 18 18 19 18
0 3 3 3 3 6 5 9 11 19 16 21 23 24 18 19 15 9 9 12 12 10 9 10 11 11 15 24 29 29 27 24 23 22 24 23 23 21 21 20 19 20 19 20
7 6 4 3 2 3 9 18 20 14 10 19 15 22 10 5 4 6 11 11 11 10 10 10 9 9 11 19 24 25 24 22 22 23 23 22 20 21 21 21 21 20 20 20
6 4 3 0 1 6 1 2 8 18 14 19 15 15 4 3 5 4 2 6 7 6 7 8 6 4 6 12 17 21 22 21 20 19 19 19 20 21 22 21 21 21 22 24
1 4 4 4 6 9 9 7 8 9 7 20 21 19 15 5 3 4 7 6 5 4 5 3 2 3 5 9 12 15 16 17 17 18 19 20 20 21 21 22 23 23 26 28
2 2 3 3 5 7 4 5 7 4 8 4 15 11 11 9 6 4 4 4 2 2 2 0 4 7 9 9 11 13 14 15 15 15 17 18 20 22 23 24 25 25 27 30
5 4 12 9 8 8 4 11 9 6 3 5 8 8 11 3 3 2 3 2 2 2 2 4 6 8 9 10 11 12 13 13 14 16 18 20 22 24 26 27 28 30 31 33
11 12 6 8 8 12 15 9 7 2 5 8 9 10 9 6 3 2 2 3 3 4 3 4 6 6 7 8 9 11 13 14 16 18 20 22 24 25 28 30 31 33 34 36
6 5 7 12 8 3 20 4 9 7 9 7 7 6 4 3 3 3 4 4 5 5 5 6 7 8 10 11 12 14 17 19 20 22 24 25 27 28 29 31 32 33 33 33
6 3 2 3 5 7 13 10 9 9 9 8 7 5 3 4 4 4 3 5 5 7 8 8 10 11 13 14 16 18 20 22 24 25 26 27 27 28 28 28 28 28 27 27
2 12 7 4 3 2 8 14 13 10 8 7 6 5 3 4 4 4 4 4 6 8 9 10 12 13 15 17 19 21 23 24 25 25 26 26 27 27 27 26 25 24 23 22
9 6 6 5 6 2 4 15 14 12 9 7 6 5 4 4 4 4 5 6 8 10 11 12 14 16 17 18 19 21 21 22 23 23 23 24 25 25 26 27 29 26 28 28
Wind_Direction
121 207 149 59 27 8 13 319 303 87 47 300 268 277 275 230 225 235 232 227 224 222 214 202 201 205 200 194 188 180 173 167 157 131 98 76 63 54 45 40 36 32 32 31
172 149 99 127 78 128 184 273 288 146 51 274 299 286 274 257 244 235 237 233 229 222 211 202 201 203 202 200 194 188 181 174 163 152 135 110 74 58 48 40 35 33 32 31
149 99 126 199 131 149 16 295 329 305 314 238 294 269 202 151 257 241 241 243 236 227 217 210 203 206 203 202 200 194 189 181 170 154 130 93 66 46 34 36 35 34 31 30
71 97 144 157 113 312 217 35 290 291 307 324 346 291 312 342 266 244 250 235 233 227 222 216 207 203 203 204 203 199 195 190 182 168 129 110 122 73 44 39 34 31 28 26
107 125 133 161 47 332 57 121 346 305 281 312 172 259 106 54 29 39 13 251 243 230 222 217 212 206 201 203 205 203 200 197 191 179 153 127 97 66 47 37 31 25 22 21
86 67 14 73 97 44 135 148 186 241 287 255 79 273 296 106 29 344 327 325 273 234 221 217 213 204 197 202 206 206 206 204 200 192 175 144 98 49 37 28 21 16 15 13
140 79 98 175 127 155 230 210 197 222 214 268 104 256 274 316 5 317 305 312 309 233 216 212 208 202 197 203 208 210 210 210 207 202 193 179 147 63 39 22 13 8 2 1
175 197 172 75 333 323 195 290 258 239 234 355 154 238 228 114 315 336 301 294 301 242 216 210 208 205 201 208 210 213 212 212 212 209 206 201 200 189 15 6 356 351 348 348
145 124 125 58 340 330 152 220 35 62 90 268 241 222 234 135 120 21 15 17 347 269 217 211 210 207 204 210 215 218 216 214 215 213 214 214 222 245 315 342 345 340 336 335
158 112 320 102 196 129 289 18 162 177 246 260 246 262 253 187 108 67 49 32 18 317 236 213 210 212 210 213 216 217 218 218 219 218 219 222 232 249 284 318 330 330 326 322
113 266 128 245 206 183 167 211 213 320 211 247 284 260 55 147 152 111 56 32 22 7 286 230 220 214 209 211 212 217 215 216 217 220 224 229 238 250 269 298 316 322 320 315
177 44 158 168 86 355 347 281 208 217 176 210 305 271 191 181 224 190 143 20 41 9 334 283 227 213 213 210 210 212 214 218 222 226 231 235 241 251 265 287 303 312 315 310
183 193 141 192 184 289 218 191 236 353 47 202 243 252 162 170 216 211 252 321 330 316 294 270 238 218 213 211 212 213 215 218 219 225 233 239 245 251 261 276 290 302 308 303
170 181 244 257 78 110 194 204 205 194 206 238 223 262 210 244 253 259 285 295 315 321 306 289 263 234 220 216 214 213 216 218 221 228 237 244 248 250 257 271 284 295 301 298
210 214 118 279 234 192 176 178 196 206 217 221 258 254 253 269 307 294 305 315 310 311 315 289 275 253 226 218 215 214 216 221 227 234 241 247 250 250 255 267 279 290 294 296
114 165 142 257 193 222 238 227 212 216 232 250 257 273 278 299 286 278 304 307 303 311 317 312 295 276 240 222 217 215 220 229 238 244 246 248 248 249 254 265 276 284 288 292
164 151 162 246 22 310 267 206 207 213 212 222 238 246 266 239 273 323 315 314 312 312 316 318 311 292 256 231 220 223 229 238 245 244 244 244 245 248 255 265 274 279 284 288
147 170 186 139 144 243 341 112 201 221 241 219 251 252 173 243 287 303 335 327 339 334 332 335 325 286 250 226 224 230 235 239 236 231 232 237 243 248 257 264 270 276 283 288
8 165 174 217 211 309 246 189 178 176 258 219 229 247 250 248 238 153 4 19 22 346 346 345 274 228 218 216 224 225 221 217 215 219 228 238 245 252 258 265 271 277 282 286
102 354 238 153 228 241 56 133 132 148 273 183 214 230 217 168 193 119 25 26 349 352 344 245 211 215 213 204 202 211 212 214 222 229 239 248 255 261 267 272 277 282 285 289
167 193 218 206 242 277 119 139 136 180 302 116 140 134 139 151 50 114 298 325 273 267 245 234 227 224 218 214 214 220 226 233 240 246 253 259 265 271 276 280 285 288 289 290
171 171 191 198 221 256 140 129 199 84 70 118 113 112 111 96 93 139 172 205 222 238 245 247 240 235 234 236 241 247 252 257 263 268 272 275 278 283 286 288 288 289 290 292
214 222 177 194 206 114 185 78 181 159 153 146 143 155 150 134 163 188 242 242 240 245 252 257 260 259 263 270 273 276 277 280 282 284 287 289 290 291 291 292 292 292 293 292
221 182 219 162 180 204 188 198 181 165 171 172 188 218 226 203 219 221 238 245 254 260 263 271 279 283 287 290 292 292 293 294 296 297 296 295 294 293 294 295 296 296 297 296
106 153 171 247 195 126 213 214 216 202 204 219 239 246 217 209 197 206 227 255 270 280 286 287 288 290 294 297 297 296 297 297 296 296 297 298 298 298 298 297 298 298 297 296
186 172 194 233 150 191 127 198 203 208 210 219 224 215 200 199 214 234 257 272 281 286 291 293 295 297 298 299 300 301 303 303 303 303 304 304 304 304 303 303 299 297 298 298